DLH877 HKJK-HKMO

Flight info

Callsign DLH877
Flight time 0h 41m
Altitude 32000
Route ATUDU1D UVOVA UQ135 NEREV NEREV3A
Aircraft A320/M-SDE3FGHIRWY/LB1

Departure

Time 2026-04-27 10:45
Airport Jomo Kenyatta International Airport (HKJK)

Arrival

Time 2026-04-27 11:26
Airport Moi International Airport (HKMO)
Time Latitude Longitude Altitude Speed Heading
2026-04-27 10:38 -1.32830 36.92646 5315 ft 4 kts 234°
2026-04-27 10:38 -1.32821 36.92668 5322 ft 4 kts 293°
2026-04-27 10:38 -1.32825 36.92676 5316 ft 0 kts 304°
2026-04-27 10:41 -1.32798 36.92636 5321 ft 11 kts 304°
2026-04-27 10:41 -1.32768 36.92545 5324 ft 15 kts 280°
2026-04-27 10:41 -1.32767 36.92444 5314 ft 13 kts 263°
2026-04-27 10:42 -1.32730 36.92383 5319 ft 10 kts 324°
2026-04-27 10:42 -1.32680 36.92335 5321 ft 9 kts 295°
2026-04-27 10:42 -1.32688 36.92291 5320 ft 10 kts 236°
2026-04-27 10:42 -1.32764 36.92191 5323 ft 20 kts 233°
2026-04-27 10:43 -1.32839 36.92075 5333 ft 19 kts 249°
2026-04-27 10:43 -1.32830 36.91950 5332 ft 18 kts 279°
2026-04-27 10:43 -1.32836 36.91833 5337 ft 17 kts 242°
2026-04-27 10:43 -1.32870 36.91741 5336 ft 12 kts 278°
2026-04-27 10:44 -1.32818 36.91688 5338 ft 10 kts 326°
2026-04-27 10:44 -1.32760 36.91662 5339 ft 8 kts 349°
2026-04-27 10:44 -1.32696 36.91722 5335 ft 29 kts 54°
2026-04-27 10:44 -1.32430 36.92089 5318 ft 99 kts 53°
2026-04-27 10:45 -1.31912 36.92799 5316 ft 152 kts 54°
2026-04-27 10:45 -1.31216 36.93753 5583 ft 175 kts 56°
2026-04-27 10:45 -1.30730 36.94859 6378 ft 175 kts 81°
2026-04-27 10:45 -1.30563 36.96116 6704 ft 193 kts 84°
2026-04-27 10:46 -1.30417 36.97521 6926 ft 214 kts 85°
2026-04-27 10:46 -1.30232 36.99073 7143 ft 234 kts 83°
2026-04-27 10:46 -1.30012 37.00765 7438 ft 257 kts 83°
2026-04-27 10:46 -1.29758 37.02610 7858 ft 278 kts 83°
2026-04-27 10:47 -1.29481 37.04553 8575 ft 286 kts 83°
2026-04-27 10:47 -1.29440 37.06540 9383 ft 289 kts 101°
2026-04-27 10:47 -1.30167 37.08410 10196 ft 292 kts 124°
2026-04-27 10:47 -1.31463 37.10068 10540 ft 314 kts 130°
2026-04-27 10:48 -1.32905 37.11782 10997 ft 328 kts 130°
2026-04-27 10:48 -1.34404 37.13531 11680 ft 334 kts 130°
2026-04-27 10:48 -1.35933 37.15302 12418 ft 338 kts 130°
2026-04-27 10:48 -1.37476 37.17092 13137 ft 343 kts 130°
2026-04-27 10:49 -1.39033 37.18913 13855 ft 347 kts 130°
2026-04-27 10:49 -1.40602 37.20759 14492 ft 351 kts 129°
2026-04-27 10:49 -1.42184 37.22630 15106 ft 354 kts 129°
2026-04-27 10:49 -1.43780 37.24521 15732 ft 357 kts 129°
2026-04-27 10:50 -1.45391 37.26430 16336 ft 361 kts 129°
2026-04-27 10:50 -1.47020 37.28357 16938 ft 365 kts 129°
2026-04-27 10:50 -1.48664 37.30301 17542 ft 368 kts 129°
2026-04-27 10:50 -1.50304 37.32236 18159 ft 371 kts 129°
2026-04-27 10:51 -1.51982 37.34213 18724 ft 375 kts 129°
2026-04-27 10:51 -1.53679 37.36211 19238 ft 378 kts 129°
2026-04-27 10:51 -1.55384 37.38221 19745 ft 381 kts 129°
2026-04-27 10:51 -1.57104 37.40252 20256 ft 384 kts 129°
2026-04-27 10:52 -1.58839 37.42300 20757 ft 387 kts 129°
2026-04-27 10:52 -1.60585 37.44361 21253 ft 390 kts 129°
2026-04-27 10:52 -1.62346 37.46443 21738 ft 393 kts 129°
2026-04-27 10:52 -1.64116 37.48538 22247 ft 396 kts 129°
2026-04-27 10:53 -1.65900 37.50651 22719 ft 399 kts 129°
2026-04-27 10:53 -1.69515 37.54922 23655 ft 405 kts 129°
2026-04-27 10:53 -1.71341 37.57080 24033 ft 408 kts 129°
2026-04-27 10:54 -1.73182 37.59254 24413 ft 411 kts 129°
2026-04-27 10:54 -1.75032 37.61437 24803 ft 413 kts 129°
2026-04-27 10:54 -1.76895 37.63630 25184 ft 415 kts 129°
2026-04-27 10:54 -1.78822 37.65794 25560 ft 418 kts 131°
2026-04-27 10:55 -1.80845 37.67889 25930 ft 420 kts 133°
2026-04-27 10:55 -1.82937 37.69943 26296 ft 423 kts 134°
2026-04-27 10:55 -1.85065 37.71986 26665 ft 425 kts 135°
2026-04-27 10:55 -1.87203 37.74037 27024 ft 427 kts 134°
2026-04-27 10:56 -1.89337 37.76112 27375 ft 429 kts 134°
2026-04-27 10:56 -1.91467 37.78214 27734 ft 431 kts 133°
2026-04-27 10:56 -1.93594 37.80337 28083 ft 433 kts 133°
2026-04-27 10:56 -1.95725 37.82477 28427 ft 435 kts 133°
2026-04-27 10:57 -1.97864 37.84626 28773 ft 437 kts 133°
2026-04-27 10:57 -1.99991 37.86756 29104 ft 439 kts 133°
2026-04-27 10:57 -2.02157 37.88920 29449 ft 441 kts 133°
2026-04-27 10:57 -2.04336 37.91094 29778 ft 444 kts 133°
2026-04-27 10:58 -2.06528 37.93277 30100 ft 446 kts 133°
2026-04-27 10:58 -2.08732 37.95471 30371 ft 448 kts 133°
2026-04-27 10:58 -2.10946 37.97677 30640 ft 450 kts 133°
2026-04-27 10:58 -2.13167 37.99892 30904 ft 452 kts 133°
2026-04-27 10:59 -2.15395 38.02114 31168 ft 454 kts 133°
2026-04-27 10:59 -2.17633 38.04347 31426 ft 455 kts 133°
2026-04-27 10:59 -2.19874 38.06587 31691 ft 457 kts 133°
2026-04-27 11:00 -2.24357 38.11066 32055 ft 450 kts 133°
2026-04-27 11:00 -2.26529 38.13231 32058 ft 433 kts 133°
2026-04-27 11:00 -2.30707 38.17400 32058 ft 420 kts 133°
2026-04-27 11:01 -2.34830 38.21516 32054 ft 418 kts 133°
2026-04-27 11:01 -2.38947 38.25624 32039 ft 418 kts 133°
2026-04-27 11:02 -2.43062 38.29735 32037 ft 418 kts 133°
2026-04-27 11:02 -2.47175 38.33845 32025 ft 418 kts 133°
2026-04-27 11:03 -2.51291 38.37946 32018 ft 418 kts 133°
2026-04-27 11:03 -2.55396 38.42051 32003 ft 417 kts 133°
2026-04-27 11:04 -2.59499 38.46151 31993 ft 417 kts 133°
2026-04-27 11:04 -2.63605 38.50239 31987 ft 416 kts 133°
2026-04-27 11:05 -2.67709 38.54328 31981 ft 416 kts 133°
2026-04-27 11:05 -2.71804 38.58425 31979 ft 416 kts 133°
2026-04-27 11:06 -2.75871 38.62496 31521 ft 409 kts 133°
2026-04-27 11:06 -2.77873 38.64495 31080 ft 405 kts 133°
2026-04-27 11:06 -2.79835 38.66453 30634 ft 402 kts 133°
2026-04-27 11:07 -2.81832 38.68450 30182 ft 400 kts 133°
2026-04-27 11:07 -2.83763 38.70383 29693 ft 397 kts 134°
2026-04-27 11:07 -2.85710 38.72327 29181 ft 394 kts 133°
2026-04-27 11:07 -2.87646 38.74257 28685 ft 392 kts 133°
2026-04-27 11:08 -2.89568 38.76174 28203 ft 389 kts 133°
2026-04-27 11:08 -2.91499 38.78108 27722 ft 386 kts 133°
2026-04-27 11:08 -2.93361 38.79974 27262 ft 383 kts 133°
2026-04-27 11:08 -2.95240 38.81856 26986 ft 382 kts 133°
2026-04-27 11:09 -2.97116 38.83734 26740 ft 381 kts 133°
2026-04-27 11:09 -2.98983 38.85598 26448 ft 377 kts 133°
2026-04-27 11:09 -3.00830 38.87443 26020 ft 374 kts 133°
2026-04-27 11:09 -3.02665 38.89277 25550 ft 373 kts 133°
2026-04-27 11:10 -3.04497 38.91105 25094 ft 371 kts 133°
2026-04-27 11:10 -3.06324 38.92930 24611 ft 371 kts 133°
2026-04-27 11:10 -3.08148 38.94749 24140 ft 370 kts 133°
2026-04-27 11:10 -3.09974 38.96572 23648 ft 371 kts 133°
2026-04-27 11:11 -3.11797 38.98394 23116 ft 371 kts 132°
2026-04-27 11:11 -3.13613 39.00213 22633 ft 368 kts 133°
2026-04-27 11:11 -3.15421 39.02024 22167 ft 366 kts 133°
2026-04-27 11:11 -3.17218 39.03824 21707 ft 365 kts 133°
2026-04-27 11:12 -3.19009 39.05615 21238 ft 364 kts 133°
2026-04-27 11:12 -3.20799 39.07399 20783 ft 362 kts 133°
2026-04-27 11:12 -3.22575 39.09176 20332 ft 361 kts 132°
2026-04-27 11:12 -3.24343 39.10950 19878 ft 359 kts 133°
2026-04-27 11:13 -3.26115 39.12704 19430 ft 359 kts 134°
2026-04-27 11:13 -3.27914 39.14438 18972 ft 358 kts 135°
2026-04-27 11:13 -3.29715 39.16151 18524 ft 357 kts 135°
2026-04-27 11:13 -3.31518 39.17859 18085 ft 356 kts 135°
2026-04-27 11:14 -3.33305 39.19557 17607 ft 354 kts 135°
2026-04-27 11:14 -3.35078 39.21248 17158 ft 351 kts 135°
2026-04-27 11:14 -3.36837 39.22929 16825 ft 345 kts 135°
2026-04-27 11:14 -3.38522 39.24543 16539 ft 328 kts 135°
2026-04-27 11:15 -3.40170 39.26121 15820 ft 330 kts 136°
2026-04-27 11:15 -3.41818 39.27699 15518 ft 326 kts 136°
2026-04-27 11:15 -3.43455 39.29267 15146 ft 326 kts 136°
2026-04-27 11:15 -3.45095 39.30838 14754 ft 326 kts 136°
2026-04-27 11:16 -3.46731 39.32407 14361 ft 326 kts 136°
2026-04-27 11:16 -3.48370 39.33979 13964 ft 326 kts 136°
2026-04-27 11:16 -3.50011 39.35550 13558 ft 326 kts 137°
2026-04-27 11:16 -3.51619 39.37090 13279 ft 313 kts 137°
2026-04-27 11:17 -3.53171 39.38578 12744 ft 306 kts 137°
2026-04-27 11:17 -3.54694 39.40039 12159 ft 301 kts 137°
2026-04-27 11:17 -3.56196 39.41480 11575 ft 297 kts 137°
2026-04-27 11:17 -3.57679 39.42902 10997 ft 293 kts 137°
2026-04-27 11:18 -3.59131 39.44291 10668 ft 281 kts 137°
2026-04-27 11:18 -3.60473 39.45579 10541 ft 262 kts 137°
2026-04-27 11:18 -3.61744 39.46804 10419 ft 245 kts 137°
2026-04-27 11:18 -3.62969 39.47982 10041 ft 240 kts 137°
2026-04-27 11:19 -3.64195 39.49157 9115 ft 256 kts 137°
2026-04-27 11:19 -3.65532 39.50437 8338 ft 273 kts 138°
2026-04-27 11:19 -3.66915 39.51761 7847 ft 276 kts 138°
2026-04-27 11:19 -3.68296 39.53085 7456 ft 274 kts 139°
2026-04-27 11:20 -3.69670 39.54401 7068 ft 272 kts 138°
2026-04-27 11:20 -3.71032 39.55708 6707 ft 270 kts 139°
2026-04-27 11:20 -3.72386 39.57007 6342 ft 269 kts 139°
2026-04-27 11:20 -3.73730 39.58297 5954 ft 267 kts 139°
2026-04-27 11:21 -3.75064 39.59578 5584 ft 265 kts 139°
2026-04-27 11:21 -3.76387 39.60849 5220 ft 262 kts 139°
2026-04-27 11:21 -3.77721 39.62079 4832 ft 258 kts 146°
2026-04-27 11:21 -3.79293 39.62905 4415 ft 254 kts 158°
2026-04-27 11:22 -3.80920 39.63603 3976 ft 254 kts 159°
2026-04-27 11:22 -3.82496 39.64279 3803 ft 238 kts 159°
2026-04-27 11:22 -3.83967 39.64912 3540 ft 224 kts 159°
2026-04-27 11:22 -3.85378 39.65520 3198 ft 219 kts 160°
2026-04-27 11:23 -3.86768 39.66118 2773 ft 216 kts 158°
2026-04-27 11:23 -3.88144 39.66705 2301 ft 213 kts 161°
2026-04-27 11:23 -3.89571 39.66921 2175 ft 204 kts 187°
2026-04-27 11:23 -3.90890 39.66477 2188 ft 201 kts 207°
2026-04-27 11:24 -3.92100 39.65798 2114 ft 199 kts 209°
2026-04-27 11:24 -3.93317 39.65115 1926 ft 204 kts 206°
2026-04-27 11:24 -3.94595 39.64401 1656 ft 215 kts 207°
2026-04-27 11:24 -3.95451 39.63921 1455 ft 211 kts 205°
2026-04-27 11:25 -3.96706 39.63218 1205 ft 202 kts 208°
2026-04-27 11:25 -3.97899 39.62551 968 ft 192 kts 208°
2026-04-27 11:25 -3.99034 39.61916 751 ft 179 kts 207°
2026-04-27 11:25 -4.00045 39.61344 506 ft 155 kts 207°
2026-04-27 11:26 -4.00920 39.60860 355 ft 136 kts 207°
2026-04-27 11:26 -4.01707 39.60425 208 ft 120 kts 207°
2026-04-27 11:26 -4.02252 39.60124 211 ft 55 kts 209°
2026-04-27 11:26 -4.02552 39.59956 212 ft 45 kts 210°
2026-04-27 11:27 -4.02702 39.59925 207 ft 10 kts 121°
2026-04-27 11:27 -4.02788 39.59989 212 ft 20 kts 147°
2026-04-27 11:27 -4.02875 39.60095 212 ft 21 kts 121°
2026-04-27 11:27 -4.02953 39.60222 211 ft 20 kts 148°
2026-04-27 11:28 -4.03079 39.60181 208 ft 21 kts 210°
2026-04-27 11:28 -4.03172 39.60133 215 ft 7 kts 182°
2026-04-27 11:28 -4.03190 39.60171 205 ft 6 kts 102°
2026-04-27 11:28 -4.03207 39.60202 208 ft 0 kts 119°